Total_Precipitation_Accumulation
0.03 0.02 0.02 0.01 0.01 0.01 0.01 0.01 0.00 0.00 0.00 0.00 0.00 0.00 0.00 0.00 0.00 0.00 0.00 0.00 0.00 0.01 0.01 0.02 0.02 0.02 0.02 0.03 0.03 0.03 0.02 0.02 0.02 0.02 0.01 0.01 0.01 0.01 0.01 0.01 0.01 0.00 0.01
0.02 0.01 0.01 0.01 0.00 0.00 0.00 0.00 0.00 0.00 0.00 0.00 0.00 0.00 0.00 0.00 0.00 0.00 0.00 0.01 0.01 0.02 0.03 0.03 0.04 0.04 0.05 0.07 0.06 0.05 0.06 0.05 0.05 0.04 0.04 0.03 0.02 0.02 0.02 0.02 0.02 0.01 0.01
0.02 0.01 0.01 0.01 0.01 0.00 0.00 0.00 0.00 0.00 0.00 0.00 0.00 0.00 0.00 0.00 0.00 0.01 0.01 0.02 0.03 0.04 0.04 0.04 0.04 0.04 0.04 0.05 0.06 0.06 0.07 0.07 0.08 0.07 0.07 0.07 0.05 0.04 0.04 0.03 0.04 0.03 0.03
0.00 0.00 0.01 0.01 0.01 0.00 0.00 0.00 0.00 0.00 0.01 0.01 0.01 0.01 0.01 0.02 0.02 0.03 0.02 0.03 0.03 0.03 0.04 0.04 0.04 0.05 0.04 0.05 0.05 0.06 0.07 0.07 0.09 0.10 0.11 0.11 0.10 0.09 0.07 0.06 0.06 0.06 0.05
0.00 0.01 0.01 0.01 0.01 0.01 0.01 0.02 0.04 0.05 0.05 0.04 0.03 0.03 0.04 0.05 0.06 0.05 0.04 0.04 0.03 0.03 0.02 0.03 0.04 0.07 0.07 0.06 0.06 0.06 0.08 0.10 0.13 0.15 0.14 0.13 0.13 0.13 0.12 0.11 0.09 0.08 0.08
0.03 0.03 0.03 0.03 0.04 0.05 0.06 0.09 0.10 0.08 0.06 0.05 0.03 0.02 0.03 0.04 0.04 0.04 0.04 0.03 0.03 0.02 0.02 0.01 0.02 0.04 0.06 0.08 0.10 0.09 0.08 0.12 0.18 0.18 0.15 0.14 0.16 0.17 0.16 0.15 0.13 0.12 0.10
0.09 0.09 0.10 0.11 0.10 0.09 0.08 0.07 0.06 0.04 0.03 0.02 0.02 0.02 0.01 0.01 0.01 0.01 0.01 0.01 0.01 0.01 0.01 0.01 0.01 0.01 0.03 0.09 0.13 0.12 0.09 0.11 0.18 0.21 0.18 0.18 0.20 0.21 0.21 0.20 0.17 0.15 0.13
0.12 0.10 0.09 0.08 0.07 0.05 0.04 0.04 0.02 0.02 0.02 0.02 0.02 0.02 0.01 0.00 0.00 0.00 0.00 0.00 0.00 0.00 0.00 0.00 0.00 0.00 0.01 0.04 0.06 0.08 0.08 0.06 0.08 0.13 0.19 0.23 0.26 0.28 0.26 0.24 0.21 0.20 0.18
0.14 0.12 0.08 0.05 0.03 0.02 0.01 0.01 0.00 0.01 0.01 0.01 0.01 0.02 0.02 0.01 0.00 0.00 0.00 0.00 0.00 0.00 0.00 0.00 0.00 0.01 0.01 0.01 0.01 0.01 0.04 0.04 0.03 0.04 0.10 0.20 0.23 0.23 0.23 0.25 0.26 0.26 0.23
0.12 0.08 0.05 0.03 0.02 0.00 0.00 0.00 0.00 0.00 0.01 0.01 0.01 0.01 0.02 0.03 0.03 0.02 0.00 0.00 0.00 0.00 0.00 0.00 0.00 0.00 0.00 0.00 0.01 0.01 0.03 0.04 0.06 0.06 0.07 0.13 0.18 0.18 0.18 0.20 0.24 0.28 0.29
0.08 0.06 0.05 0.04 0.02 0.01 0.00 0.00 0.00 0.01 0.01 0.01 0.01 0.01 0.01 0.01 0.02 0.03 0.02 0.01 0.00 0.00 0.00 0.00 0.01 0.02 0.02 0.02 0.03 0.04 0.05 0.06 0.08 0.10 0.11 0.11 0.13 0.15 0.17 0.19 0.21 0.24 0.28
0.06 0.04 0.03 0.03 0.01 0.00 0.00 0.00 0.00 0.01 0.01 0.01 0.01 0.01 0.02 0.02 0.02 0.02 0.02 0.01 0.01 0.00 0.00 0.00 0.00 0.01 0.01 0.02 0.06 0.10 0.11 0.12 0.12 0.12 0.12 0.12 0.12 0.13 0.15 0.17 0.19 0.22 0.25
0.03 0.02 0.02 0.01 0.01 0.00 0.00 0.00 0.00 0.00 0.00 0.01 0.01 0.01 0.01 0.01 0.01 0.01 0.02 0.02 0.02 0.01 0.00 0.00 0.00 0.00 0.00 0.01 0.04 0.09 0.13 0.14 0.13 0.12 0.10 0.08 0.07 0.07 0.09 0.11 0.14 0.19 0.23
0.01 0.01 0.01 0.00 0.00 0.00 0.00 0.00 0.00 0.00 0.01 0.01 0.01 0.02 0.01 0.01 0.01 0.03 0.04 0.06 0.06 0.03 0.01 0.00 0.00 0.00 0.00 0.01 0.03 0.07 0.12 0.10 0.09 0.08 0.07 0.05 0.04 0.04 0.05 0.06 0.08 0.11 0.15
0.01 0.00 0.00 0.00 0.00 0.00 0.00 0.00 0.00 0.00 0.01 0.02 0.03 0.03 0.03 0.03 0.03 0.03 0.04 0.07 0.13 0.12 0.05 0.01 0.00 0.00 0.00 0.02 0.04 0.08 0.13 0.12 0.11 0.10 0.07 0.05 0.04 0.04 0.04 0.04 0.05 0.05 0.06
0.00 0.00 0.00 0.00 0.00 0.00 0.00 0.00 0.00 0.01 0.02 0.03 0.04 0.04 0.06 0.05 0.05 0.05 0.06 0.08 0.13 0.18 0.14 0.04 0.01 0.01 0.02 0.03 0.05 0.11 0.14 0.11 0.11 0.10 0.07 0.05 0.05 0.04 0.04 0.04 0.04 0.04 0.04
0.00 0.00 0.00 0.00 0.00 0.00 0.00 0.01 0.02 0.02 0.03 0.04 0.05 0.06 0.07 0.07 0.08 0.07 0.07 0.08 0.09 0.13 0.17 0.09 0.04 0.04 0.06 0.08 0.11 0.14 0.14 0.12 0.11 0.12 0.11 0.11 0.08 0.06 0.05 0.05 0.05 0.05 0.04
0.00 0.00 0.00 0.00 0.00 0.00 0.01 0.02 0.03 0.03 0.05 0.05 0.05 0.05 0.05 0.06 0.08 0.07 0.06 0.06 0.08 0.12 0.20 0.18 0.11 0.08 0.08 0.10 0.12 0.13 0.10 0.09 0.11 0.14 0.14 0.12 0.09 0.07 0.05 0.04 0.04 0.04 0.03
0.01 0.00 0.00 0.01 0.01 0.01 0.02 0.03 0.04 0.04 0.04 0.03 0.03 0.03 0.04 0.05 0.06 0.05 0.06 0.08 0.09 0.12 0.17 0.20 0.13 0.10 0.08 0.07 0.12 0.14 0.14 0.15 0.10 0.09 0.09 0.08 0.07 0.06 0.06 0.05 0.04 0.03 0.02
0.01 0.01 0.01 0.01 0.01 0.02 0.02 0.02 0.02 0.01 0.01 0.01 0.01 0.02 0.03 0.05 0.07 0.09 0.08 0.09 0.11 0.13 0.14 0.15 0.12 0.09 0.07 0.07 0.13 0.20 0.19 0.15 0.12 0.08 0.08 0.06 0.05 0.04 0.06 0.11 0.07 0.05 0.04
0.01 0.01 0.01 0.01 0.01 0.01 0.01 0.00 0.00 0.00 0.00 0.01 0.01 0.02 0.03 0.05 0.10 0.12 0.12 0.11 0.13 0.14 0.15 0.17 0.15 0.11 0.07 0.09 0.15 0.20 0.20 0.14 0.10 0.07 0.07 0.06 0.07 0.15 0.35 0.47 0.33 0.14 0.09
0.01 0.01 0.00 0.00 0.00 0.00 0.00 0.00 0.00 0.00 0.00 0.01 0.02 0.03 0.02 0.03 0.05 0.07 0.08 0.11 0.14 0.17 0.20 0.21 0.18 0.12 0.07 0.12 0.19 0.26 0.26 0.21 0.14 0.08 0.07 0.07 0.17 0.47 0.85 1.08 0.78 0.34 0.23
0.01 0.00 0.00 0.00 0.00 0.00 0.00 0.00 0.00 0.00 0.01 0.03 0.04 0.04 0.03 0.03 0.05 0.06 0.06 0.07 0.08 0.13 0.21 0.28 0.26 0.16 0.13 0.19 0.30 0.32 0.25 0.22 0.18 0.13 0.13 0.14 0.28 0.56 0.76 0.96 0.96 0.62 0.48
0.00 0.00 0.00 0.00 0.01 0.01 0.00 0.00 0.00 0.01 0.02 0.03 0.04 0.05 0.06 0.07 0.06 0.07 0.05 0.05 0.07 0.12 0.21 0.26 0.27 0.23 0.25 0.30 0.36 0.35 0.28 0.23 0.18 0.14 0.15 0.21 0.33 0.51 0.61 0.79 1.12 1.07 0.89
0.00 0.01 0.00 0.01 0.01 0.02 0.00 0.00 0.00 0.01 0.01 0.01 0.02 0.02 0.05 0.05 0.07 0.09 0.08 0.07 0.10 0.15 0.23 0.36 0.41 0.45 0.48 0.45 0.38 0.31 0.29 0.27 0.26 0.20 0.19 0.25 0.39 0.54 0.69 0.90 1.05 1.20 1.15
0.00 0.00 0.00 0.01 0.02 0.04 0.01 0.00 0.01 0.01 0.02 0.01 0.01 0.01 0.04 0.07 0.09 0.10 0.08 0.11 0.15 0.22 0.38 0.53 0.59 0.61 0.53 0.45 0.40 0.34 0.33 0.34 0.35 0.33 0.24 0.25 0.36 0.52 0.80 1.07 1.01 0.91 0.92